ITAMSAT (IO-26)

Last updated on Sun Aug 31 2025 00:03:10 GMT+0000 (Coordinated Universal Time)

1 22826U 93061D 25242.10128875 .00000164 00000+0 79255-4 0 9998 2 22826 98.7247 303.9275 0008333 212.0304 148.0373 14.31237780665679
UTC large
Height (km)
Speed (km/s)
/
Latitude / Longitude
Inclination (degrees)
Orbital Period (minutes)
Azimuth
Elevation
Range (km)
Doppler Factor

Next 0 passes for location: London (51.5072 / 0.1276)

Sorry there are no passes over London.